Regional Weather Roundup
Issued by NWS

Home | Current Version | Previous Version | Graphics & Text | Print | Product List | Glossary On
Versions: 1 2 3 4 5 6 7 8 9 10 11 12 13 14 15 16 17 18 19 20 21 22 23 24 25 26 27 28 29 30 31 32 33 34 35 36 37 38 39 40 41 42 43 44 45 46 47 48 49 50
000
ASUS43 KTOP 020259
RWRKS

WEATHER ROUNDUP FOR KANSAS
NATIONAL WEATHER SERVICE GOODLAND KS
1000 PM CDT WED JUL 01 2015

NOTE:  "FAIR" INDICATES FEW OR NO CLOUDS BELOW 12,000 FEET WITH NO
SIGNIFICANT WEATHER AND/OR OBSTRUCTIONS TO VISIBILITY.

KSZ001>006-013>018-027>032-041>047-020400-
NORTHWEST KANSAS

CITY           SKY/WX    TMP DP  RH WIND       PRES   REMARKS
GOODLAND       CLOUDY    75  63  66 S8        29.99F THUNDER
HAYS           MOCLDY    82  61  47 NE7       29.89R
HILL CITY      MOCLDY    81  57  43 NE7       29.91R
RUSSELL        MOCLDY    81  64  56 NE8       29.86R
$$

KSZ061>065-074>080-084>089-020400-
SOUTHWEST KANSAS

CITY           SKY/WX    TMP DP  RH WIND       PRES   REMARKS
DODGE CITY     CLEAR     80  57  45 E6        29.92R
ELKHART          N/A     82  55  39 E7          N/A
GARDEN CITY    PTCLDY    82  55  39 E9        29.93R
GREAT BEND     MOCLDY    81  64  57 N5        29.87R
LIBERAL        MOCLDY    88  55  33 NE10      29.94R
$$

KSZ066>073-081>083-090>101-020400-
SOUTHEAST KANSAS

CITY           SKY/WX    TMP DP  RH WIND       PRES   REMARKS
CHANUTE        PTCLDY    84  72  67 S15       29.77S
COFFEYVILLE    PTCLDY    85  73  67 S17G23    29.79R
HUTCHINSON     CLEAR     79  64  60 N7        29.82R
MEDICINE LODGE   N/A     84  60  44 NE3       29.82R
NEWTON         CLEAR     79  64  61 N7        29.84R
PARSONS        PTCLDY    85  73  67 S9        29.80R
WICHITA INTL   PTCLDY    84  66  54 S3        29.79R
WICHITA JABRA  PTCLDY    86  65  49 S12       29.80R
WINFIELD       PTCLDY    80  67  64 S14       29.80R
$$

KSZ007>012-019>026-033>040-048>060-102>105-020400-
NORTHEAST KANSAS

CITY           SKY/WX    TMP DP  RH WIND       PRES   REMARKS
CONCORDIA      CLEAR     80  70  71 NE8       29.86R
EMPORIA        CLEAR     79  73  82 N7        29.78R
LAWRENCE       MOCLDY    80  74  81 NE10      29.80R
MANHATTAN      CLEAR     83  73  72 NE12      29.81R
OLATHE IND     PTCLDY    79  70  74 NE9       29.80R THUNDER
OLATHE EXE     MOCLDY    75  68  78 NE9       29.79R
SALINA         PTCLDY    87  67  51 N9        29.82R
TOPEKA BILLARD CLEAR     80  75  84 NE8       29.81R
TOPEKA FORBES  MOCLDY    82  75  79 NE8       29.80R
$$



USA.gov is the U.S. government's official web portal to all federal, state and local government web resources and services.